Miscellaneous Local Product
Issued by NWS North Platte, NE

Home | Current Version | Previous Version | Graphics & Text | Print | Product List | Glossary On
Versions: 1 2 3 4 5 6 7 8 9 10 11 12 13 14 15 16 17 18 19 20 21 22 23 24 25 26 27 28 29 30 31 32 33 34 35 36 37 38 39 40 41 42 43 44 45 46 47 48 49 50
000
AXUS43 KLBF 270110
MISLBF


WESTERN AND NORTH CENTRAL NEBRASKA HOURLY WEATHER ROUNDUP
NATIONAL WEATHER SERVICE NORTH PLATTE NE
800 PM CDT THU MAR 26 2015

***STATIONS NOT REPORTING VARIABLES SUCH AS SKY/WEATHER OR
PRESSURE ARE PROVIDED BY THE NEBRASKA DEPARTMENT OF
ROADS...RAWS...AND APRS NETWORKS...AND ARE NOT UNDER
NATIONAL WEATHER SERVICE QUALITY CONTROL***

...OBSERVATIONS IN AND NEAR THE EASTERN PANHANDLE OF NEBRASKA...

CITY           SKY/WX    TMP DP  RH WIND       PRES   REMARKS
PINE RIDGE     CLOUDY    43  27  53 E8        30.14R
CHADRON        CLOUDY    46  29  51 E7        30.13S
ALLIANCE       MOCLDY    45  28  51 NE10      30.12R
SIDNEY         CLOUDY    50  30  46 N14       30.12S
WHITECLAY        N/A     42  25  50 NE3         N/A
CRESCENT LAKE    N/A     45  27  49 NE8G22      N/A
$$

...OBSERVATIONS IN NORTH CENTRAL NEBRASKA...

CITY           SKY/WX    TMP DP  RH WIND       PRES   REMARKS
VALENTINE      CLOUDY    35  27  72 NE6       30.19S WCI  30
THEDFORD       CLOUDY    36  30  78 NE15      30.17R WCI  27
AINSWORTH      CLOUDY    34  29  80 N5        30.19R WCI  30
O`NEILL        CLOUDY    34  32  93 N7        30.19S WCI  28
ORD            CLOUDY    35  27  72 NE15      30.17R WCI  25
BROKEN BOW     MOCLDY    36  29  75 NE16      30.15R WCI  26
BROWNLEE         N/A     34  31  86 NE14        N/A  WCI  25
SPRINGVIEW       N/A     34  28  77 NE3         N/A
BREWSTER         N/A     36  30  80 N13         N/A  WCI  27
ROSE             N/A     35  32  88 N5          N/A  WCI  31
NEWPORT          N/A     35  32  89 NE5         N/A  WCI  30
SARGENT          N/A     36  29  76 NE5         N/A  WCI  32
COMSTOCK         N/A     38  31  77 NE9         N/A  WCI  31
EWING            N/A     32  31  97 N3          N/A
$$

...OBSERVATIONS IN SOUTHWEST NEBRASKA AND FAR NORTHEAST COLORADO...

CITY           SKY/WX    TMP DP  RH WIND       PRES   REMARKS
WRAY           CLOUDY    54  30  40 N14G20    30.12R
HOLYOKE        FAIR      54  32  43 N13       30.11S
IMPERIAL         N/A     52  29  41 N20       30.10R
OGALLALA       CLOUDY    51  31  46 N8        30.12R
NORTH PLATTE   CLOUDY    45  28  51 N16G26    30.12R
MCCOOK         CLOUDY    55  27  34 N17       30.08R
LEXINGTON      CLOUDY    43  31  61 NE24      30.12R
SUTHERLAND       N/A     41  25  51 NE9         N/A
BRADY            N/A     43  30  60 W5G12       N/A
GOTHENBURG       N/A     49  26  41 N16         N/A
CALLAWAY         N/A     44  30  59 NE14        N/A
$$

...NORTH PLATTE AREA...

CITY           SKY/WX    TMP DP  RH WIND       PRES   REMARKS
AIRPORT        CLOUDY    45  28  51 N16G26    30.12R
DOWNTOWN         N/A     45  29  54 N9G17       N/A
$$

...SOME WEATHER OBSERVATIONS FROM AROUND THE REGION...

CITY           SKY/WX    TMP DP  RH WIND       PRES   REMARKS
DENVER         MOCLDY    56  26  31 CALM      30.14R
LARAMIE        CLOUDY    48  24  39 W15       30.17S
CHEYENNE       CLOUDY    48  25  40 N9        30.14R
SCOTTSBLUFF    CLOUDY    50  34  54 N18       30.10F
RAPID CITY     CLOUDY    43  27  53 E9        30.13R
PIERRE         CLOUDY    36  31  82 CALM      30.21S
WINNER         CLOUDY    35  29  78 N5        30.22R WCI  31
SIOUX FALLS    PTCLDY    32  18  56 N12       30.18R WCI  23
OMAHA          LGT RAIN  35  33  92 N8        30.17R WCI  29
GRAND ISLAND   CLOUDY    35  31  85 NE14G22   30.14R WCI  26
KANSAS CITY    CLOUDY    45  29  53 N8        30.09R
WICHITA        MOCLDY    53  33  46 S12       30.01F
HAYS           MOCLDY    57  25  28 NW16      30.03R
LIBERAL        PTCLDY    57  25  28 NW9       30.11R
GOODLAND       CLOUDY    52  30  43 N12       30.12R
$$



USA.gov is the U.S. government's official web portal to all federal, state and local government web resources and services.